Location: Argonnex
(45.9500°N, 6.1333°E)
Time: 05:05:54
(UTC+00:00)

Cosmos 2266 Rocket - Pass Details

Date: 09 August 2024
Orbit: 933 x 1008 km, 82.9° (Epoch: 08 September)

Event Time Altitude Azimuth Distance (km) Brightness Sun altitude
Rises 03:01:24 0° 337° (NNW) 3,600 7.2 -13.6°
Reaches altitude 10° 03:04:40 10° 320° (NW) 2,651 6.3 -13.1°
Maximum altitude 03:08:32 18° 279° (W) 2,128 5.4 -12.6°
Enters shadow 03:10:58 14° 252° (WSW) 2,348 5.4 -12.3°
